User: anonymous   Login
Location: Unspecified
(0.0000°N, 0.0000°E)
Time: 22:41:56
(UTC+02:00)
Language:

Cosmos 1782 Rocket - Orbit

View from above orbital plane
View from above orbital plane
View from above satellite
View from above satellite

Ground track
Ground track

The orbit data is extracted from the following two-line orbital elements,

1 16987U 86074B   17142.97460361 +.00000095 +00000-0 +88226-5 0  9992
2 16987 082.5149 334.0296 0017891 348.7021 123.1502 14.82960882633622
Epoch (UTC): 22 May 2017 23:23:25
Eccentricity: 0.0017891
inclination: 82.5149°
perigee height: 607 km
apogee height: 632 km
right ascension of ascending node: 334.0296°
argument of perigee: 348.7021°
revolutions per day: 14.82960882
mean anomaly at epoch: 123.1502°
orbit number at epoch: 63362

The dashed part of the orbit path shows where the satellite is in the earth's shadow,  

DLR